TimePDT,TemperatureF,Dew PointF,Humidity,Sea Level PressureIn,VisibilityMPH,Wind Direction,Wind SpeedMPH,Gust SpeedMPH,PrecipitationIn,Events,Conditions,WindDirDegrees,DateUTC
12:52 AM,51.1,28.0,41,30.11,10.0,West,16.1,-,N/A,,Clear,270,2013-05-14 07:52:00
1:52 AM,48.9,30.0,48,30.12,10.0,West,15.0,-,N/A,,Clear,260,2013-05-14 08:52:00
2:52 AM,51.1,33.1,50,30.12,10.0,West,11.5,-,N/A,,Clear,270,2013-05-14 09:52:00
3:52 AM,50.0,32.0,50,30.13,10.0,WNW,3.5,-,N/A,,Clear,300,2013-05-14 10:52:00
4:52 AM,48.0,33.1,56,30.14,10.0,SE,6.9,-,N/A,,Clear,140,2013-05-14 11:52:00
5:52 AM,46.9,35.1,63,30.14,10.0,SE,3.5,-,N/A,,Clear,130,2013-05-14 12:52:00
6:52 AM,51.1,34.0,52,30.15,10.0,SSW,5.8,-,N/A,,Clear,200,2013-05-14 13:52:00
7:52 AM,54.0,34.0,47,30.16,10.0,West,6.9,-,N/A,,Clear,260,2013-05-14 14:52:00
8:52 AM,57.0,28.9,34,30.15,10.0,Calm,Calm,-,N/A,,Clear,0,2013-05-14 15:52:00
9:52 AM,59.0,27.0,29,30.14,10.0,Calm,Calm,-,N/A,,Clear,0,2013-05-14 16:52:00
10:52 AM,62.1,26.1,25,30.14,10.0,North,-9999.0,-,N/A,,Unknown,0,2013-05-14 17:52:00
11:52 AM,61.0,30.0,31,30.13,10.0,North,-9999.0,-,N/A,,Unknown,0,2013-05-14 18:52:00
12:52 PM,63.0,26.1,25,30.12,7.0,North,-9999.0,-,N/A,,Unknown,0,2013-05-14 19:52:00
1:52 PM,64.9,26.1,23,30.10,10.0,SSW,10.4,-,N/A,,Clear,200,2013-05-14 20:52:00
2:52 PM,66.0,25.0,21,30.08,10.0,Variable,4.6,-,N/A,,Clear,0,2013-05-14 21:52:00
3:52 PM,66.9,26.1,21,30.06,10.0,Variable,4.6,-,N/A,,Clear,0,2013-05-14 22:52:00
4:52 PM,68.0,23.0,18,30.06,10.0,Variable,6.9,-,N/A,,Clear,0,2013-05-14 23:52:00
5:52 PM,66.9,21.0,17,30.04,10.0,SE,8.1,-,N/A,,Clear,130,2013-05-15 00:52:00
6:52 PM,66.9,21.0,17,30.03,10.0,South,6.9,-,N/A,,Clear,180,2013-05-15 01:52:00
7:52 PM,64.9,21.0,19,30.03,10.0,South,6.9,-,N/A,,Clear,180,2013-05-15 02:52:00
8:52 PM,60.1,24.1,25,30.04,10.0,South,5.8,-,N/A,,Clear,180,2013-05-15 03:52:00
9:52 PM,54.0,30.0,40,30.06,10.0,SE,3.5,-,N/A,,Unknown,140,2013-05-15 04:52:00
10:52 PM,51.1,30.9,46,30.05,10.0,SE,4.6,-,N/A,,Clear,140,2013-05-15 05:52:00
11:52 PM,55.9,33.1,42,30.05,10.0,SW,9.2,-,N/A,,Clear,230,2013-05-15 06:52:00